Year,Month,Day,Hour,Minute,Value (Times are PST for temperature in C)
2017,07,07,00,00,17.60
2017,07,07,00,01,17.60
2017,07,07,00,02,17.60
2017,07,07,00,03,17.50
2017,07,07,00,04,17.50
2017,07,07,00,05,17.50
2017,07,07,00,06,17.50
2017,07,07,00,07,17.50
2017,07,07,00,08,17.50
2017,07,07,00,09,17.50
2017,07,07,00,10,17.40
2017,07,07,00,11,17.40
2017,07,07,00,12,17.40
2017,07,07,00,13,17.40
2017,07,07,00,14,17.40
2017,07,07,00,15,17.30
2017,07,07,00,16,17.30
2017,07,07,00,17,17.30
2017,07,07,00,18,17.20
2017,07,07,00,19,17.20
2017,07,07,00,20,17.20
2017,07,07,00,21,17.20
2017,07,07,00,22,17.20
2017,07,07,00,23,17.10
2017,07,07,00,24,17.10
2017,07,07,00,25,17.10
2017,07,07,00,26,17.10
2017,07,07,00,27,17.10
2017,07,07,00,28,17.10
2017,07,07,00,29,17.10
2017,07,07,00,30,17.10
2017,07,07,00,31,17.10
2017,07,07,00,32,17.10
2017,07,07,00,33,17.10
2017,07,07,00,34,17.10
2017,07,07,00,35,17.10
2017,07,07,00,36,17.00
2017,07,07,00,37,17.00
2017,07,07,00,38,17.00
2017,07,07,00,39,17.00
2017,07,07,00,40,16.90
2017,07,07,00,41,16.90
2017,07,07,00,42,16.90
2017,07,07,00,43,16.90
2017,07,07,00,44,16.90
2017,07,07,00,45,16.90
2017,07,07,00,46,16.90
2017,07,07,00,47,16.80
2017,07,07,00,48,16.80
2017,07,07,00,49,16.80
2017,07,07,00,50,16.80
2017,07,07,00,51,16.70
2017,07,07,00,52,16.70
2017,07,07,00,53,16.70
2017,07,07,00,54,16.70
2017,07,07,00,55,16.60
2017,07,07,00,56,16.60
2017,07,07,00,57,16.60
2017,07,07,00,58,16.60
2017,07,07,00,59,16.60
2017,07,07,01,00,16.60
2017,07,07,01,01,16.50
2017,07,07,01,02,16.50
2017,07,07,01,03,16.50
2017,07,07,01,04,16.50
2017,07,07,01,05,16.40
2017,07,07,01,06,16.40
2017,07,07,01,07,16.40
2017,07,07,01,08,16.40
2017,07,07,01,09,16.40
2017,07,07,01,10,16.40
2017,07,07,01,11,16.30
2017,07,07,01,12,16.30
2017,07,07,01,13,16.30
2017,07,07,01,14,16.30
2017,07,07,01,15,16.30
2017,07,07,01,16,16.30
2017,07,07,01,17,16.30
2017,07,07,01,18,16.30
2017,07,07,01,19,16.30
2017,07,07,01,20,16.20
2017,07,07,01,21,16.20
2017,07,07,01,22,16.20
2017,07,07,01,23,16.20
2017,07,07,01,24,16.20
2017,07,07,01,25,16.20
2017,07,07,01,26,16.20
2017,07,07,01,27,16.10
2017,07,07,01,28,16.10
2017,07,07,01,29,16.10
2017,07,07,01,30,16.00
2017,07,07,01,31,16.00
2017,07,07,01,32,16.00
2017,07,07,01,33,15.90
2017,07,07,01,34,15.90
2017,07,07,01,35,15.90
2017,07,07,01,36,15.90
2017,07,07,01,37,15.90
2017,07,07,01,38,15.90
2017,07,07,01,39,15.90
2017,07,07,01,40,15.80
2017,07,07,01,41,15.80
2017,07,07,01,42,15.80
2017,07,07,01,43,15.80
2017,07,07,01,44,15.80
2017,07,07,01,45,15.80
2017,07,07,01,46,15.70
2017,07,07,01,47,15.70
2017,07,07,01,48,15.70
2017,07,07,01,49,15.70
2017,07,07,01,50,15.70
2017,07,07,01,51,15.70
2017,07,07,01,52,15.60
2017,07,07,01,53,15.60
2017,07,07,01,54,15.60
2017,07,07,01,55,15.60
2017,07,07,01,56,15.60
2017,07,07,01,57,15.60
2017,07,07,01,58,15.60
2017,07,07,01,59,15.60
2017,07,07,02,00,15.50
2017,07,07,02,01,15.50
2017,07,07,02,02,15.50
2017,07,07,02,03,15.50
2017,07,07,02,04,15.50
2017,07,07,02,05,15.50
2017,07,07,02,06,15.50
2017,07,07,02,07,15.50
2017,07,07,02,08,15.40
2017,07,07,02,09,15.40
2017,07,07,02,10,15.40
2017,07,07,02,11,15.40
2017,07,07,02,12,15.40
2017,07,07,02,13,15.40
2017,07,07,02,14,15.40
2017,07,07,02,15,15.30
2017,07,07,02,16,15.30
2017,07,07,02,17,15.30
2017,07,07,02,18,15.30
2017,07,07,02,19,15.20
2017,07,07,02,20,15.20
2017,07,07,02,21,15.20
2017,07,07,02,22,15.20
2017,07,07,02,23,15.20
2017,07,07,02,24,15.10
2017,07,07,02,25,15.00
2017,07,07,02,26,15.00
2017,07,07,02,27,15.00
2017,07,07,02,28,15.00
2017,07,07,02,29,15.00
2017,07,07,02,30,15.00
2017,07,07,02,31,15.00
2017,07,07,02,32,15.00
2017,07,07,02,33,15.00
2017,07,07,02,34,15.00
2017,07,07,02,35,15.00
2017,07,07,02,36,15.00
2017,07,07,02,37,15.00
2017,07,07,02,38,15.00
2017,07,07,02,39,15.00
2017,07,07,02,40,15.00
2017,07,07,02,41,15.00
2017,07,07,02,42,15.00
2017,07,07,02,43,15.00
2017,07,07,02,44,15.00
2017,07,07,02,45,15.00
2017,07,07,02,46,15.00
2017,07,07,02,47,15.00
2017,07,07,02,48,15.00
2017,07,07,02,49,15.00
2017,07,07,02,50,15.00
2017,07,07,02,51,15.00
2017,07,07,02,52,15.00
2017,07,07,02,53,14.90
2017,07,07,02,54,14.90
2017,07,07,02,55,14.90
2017,07,07,02,56,14.80
2017,07,07,02,57,14.80
2017,07,07,02,58,14.80
2017,07,07,02,59,14.80
2017,07,07,03,00,14.80
2017,07,07,03,01,14.80
2017,07,07,03,02,14.80
2017,07,07,03,03,14.80
2017,07,07,03,04,14.80
2017,07,07,03,05,14.80
2017,07,07,03,06,14.70
2017,07,07,03,07,14.70
2017,07,07,03,08,14.70
2017,07,07,03,09,14.70
2017,07,07,03,10,14.70
2017,07,07,03,11,14.60
2017,07,07,03,12,14.60
2017,07,07,03,13,14.60
2017,07,07,03,14,14.50
2017,07,07,03,15,14.50
2017,07,07,03,16,14.40
2017,07,07,03,17,14.40
2017,07,07,03,18,14.40
2017,07,07,03,19,14.50
2017,07,07,03,20,14.50
2017,07,07,03,21,14.50
2017,07,07,03,22,14.50
2017,07,07,03,23,14.50
2017,07,07,03,24,14.50
2017,07,07,03,25,14.50
2017,07,07,03,26,14.50
2017,07,07,03,27,14.40
2017,07,07,03,28,14.40
2017,07,07,03,29,14.40
2017,07,07,03,30,14.30
2017,07,07,03,31,14.30
2017,07,07,03,32,14.30
2017,07,07,03,33,14.30
2017,07,07,03,34,14.30
2017,07,07,03,35,14.30
2017,07,07,03,36,14.40
2017,07,07,03,37,14.40
2017,07,07,03,38,14.30
2017,07,07,03,39,14.40
2017,07,07,03,40,14.40
2017,07,07,03,41,14.40
2017,07,07,03,42,14.40
2017,07,07,03,43,14.40
2017,07,07,03,44,14.40
2017,07,07,03,45,14.40
2017,07,07,03,46,14.40
2017,07,07,03,47,14.40
2017,07,07,03,48,14.40
2017,07,07,03,49,14.40
2017,07,07,03,50,14.40
2017,07,07,03,51,14.40
2017,07,07,03,52,14.40
2017,07,07,03,53,14.40
2017,07,07,03,54,14.40
2017,07,07,03,55,14.40
2017,07,07,03,56,14.40
2017,07,07,03,57,14.40
2017,07,07,03,58,14.40
2017,07,07,03,59,14.40
2017,07,07,04,00,14.30
2017,07,07,04,01,14.30
2017,07,07,04,02,14.30
2017,07,07,04,03,14.30
2017,07,07,04,04,14.20
2017,07,07,04,05,14.20
2017,07,07,04,06,14.20
2017,07,07,04,07,14.20
2017,07,07,04,08,14.10
2017,07,07,04,09,14.10
2017,07,07,04,10,14.10
2017,07,07,04,11,14.10
2017,07,07,04,12,14.10
2017,07,07,04,13,14.10
2017,07,07,04,14,14.10
2017,07,07,04,15,14.10
2017,07,07,04,16,14.10
2017,07,07,04,17,14.00
2017,07,07,04,18,14.00
2017,07,07,04,19,14.00
2017,07,07,04,20,14.00
2017,07,07,04,21,14.00
2017,07,07,04,22,14.00
2017,07,07,04,23,14.10
2017,07,07,04,24,14.10
2017,07,07,04,25,14.10
2017,07,07,04,26,14.10
2017,07,07,04,27,14.10
2017,07,07,04,28,14.10
2017,07,07,04,29,14.10
2017,07,07,04,30,14.10
2017,07,07,04,31,14.10
2017,07,07,04,32,14.10
2017,07,07,04,33,14.10
2017,07,07,04,34,14.10
2017,07,07,04,35,14.10
2017,07,07,04,36,14.10
2017,07,07,04,37,14.00
2017,07,07,04,38,14.00
2017,07,07,04,39,14.00
2017,07,07,04,40,13.90
2017,07,07,04,41,13.90
2017,07,07,04,42,13.90
2017,07,07,04,43,13.90
2017,07,07,04,44,13.90
2017,07,07,04,45,13.90
2017,07,07,04,46,13.90
2017,07,07,04,47,13.90
2017,07,07,04,48,13.90
2017,07,07,04,49,13.90
2017,07,07,04,50,13.90
2017,07,07,04,51,13.90
2017,07,07,04,52,13.90
2017,07,07,04,53,13.90
2017,07,07,04,54,13.90
2017,07,07,04,55,13.90
2017,07,07,04,56,13.90
2017,07,07,04,57,13.90
2017,07,07,04,58,13.90
2017,07,07,04,59,13.90
2017,07,07,05,00,13.80
2017,07,07,05,01,13.80
2017,07,07,05,02,13.80
2017,07,07,05,03,13.80
2017,07,07,05,04,13.80
2017,07,07,05,05,13.80
2017,07,07,05,06,13.80
2017,07,07,05,07,13.80
2017,07,07,05,08,13.80
2017,07,07,05,09,13.70
2017,07,07,05,10,13.70
2017,07,07,05,11,13.70
2017,07,07,05,12,13.70
2017,07,07,05,13,13.60
2017,07,07,05,14,13.60
2017,07,07,05,15,13.60
2017,07,07,05,16,13.60
2017,07,07,05,17,13.60
2017,07,07,05,18,13.60
2017,07,07,05,19,13.60
2017,07,07,05,20,13.70
2017,07,07,05,21,13.70
2017,07,07,05,22,13.70
2017,07,07,05,23,13.70
2017,07,07,05,24,13.70
2017,07,07,05,25,13.70
2017,07,07,05,26,13.70
2017,07,07,05,27,13.70
2017,07,07,05,28,13.70
2017,07,07,05,29,13.60
2017,07,07,05,30,13.60
2017,07,07,05,31,13.60
2017,07,07,05,32,13.60
2017,07,07,05,33,13.60
2017,07,07,05,34,13.60
2017,07,07,05,35,13.60
2017,07,07,05,36,13.60
2017,07,07,05,37,13.60
2017,07,07,05,38,13.60
2017,07,07,05,39,13.60
2017,07,07,05,40,13.60
2017,07,07,05,41,13.60
2017,07,07,05,42,13.60
2017,07,07,05,43,13.60
2017,07,07,05,44,13.60
2017,07,07,05,45,13.60
2017,07,07,05,46,13.60
2017,07,07,05,47,13.60
2017,07,07,05,48,13.60
2017,07,07,05,49,13.60
2017,07,07,05,50,13.60
2017,07,07,05,51,13.60
2017,07,07,05,52,13.60
2017,07,07,05,53,13.60
2017,07,07,05,54,13.60
2017,07,07,05,55,13.60
2017,07,07,05,56,13.70
2017,07,07,05,57,13.70
2017,07,07,05,58,13.70
2017,07,07,05,59,13.70
2017,07,07,06,00,13.70
2017,07,07,06,01,13.70
2017,07,07,06,02,13.70
2017,07,07,06,03,13.70
2017,07,07,06,04,13.70
2017,07,07,06,05,13.70
2017,07,07,06,06,13.70
2017,07,07,06,07,13.70
2017,07,07,06,08,13.70
2017,07,07,06,09,13.70
2017,07,07,06,10,13.70
2017,07,07,06,11,13.70
2017,07,07,06,12,13.70
2017,07,07,06,13,13.80
2017,07,07,06,14,13.80
2017,07,07,06,15,13.80
2017,07,07,06,16,13.80
2017,07,07,06,17,13.80
2017,07,07,06,18,13.80
2017,07,07,06,19,13.80
2017,07,07,06,20,13.80
2017,07,07,06,21,13.80
2017,07,07,06,22,13.80
2017,07,07,06,23,13.80
2017,07,07,06,24,13.80
2017,07,07,06,25,13.80
2017,07,07,06,26,13.80
2017,07,07,06,27,13.80
2017,07,07,06,28,13.80
2017,07,07,06,29,13.80
2017,07,07,06,30,13.90
2017,07,07,06,31,13.90
2017,07,07,06,32,13.90
2017,07,07,06,33,13.90
2017,07,07,06,34,13.90
2017,07,07,06,35,13.90
2017,07,07,06,36,13.90
2017,07,07,06,37,13.90
2017,07,07,06,38,13.90
2017,07,07,06,39,13.90
2017,07,07,06,40,13.90
2017,07,07,06,41,14.00
2017,07,07,06,42,14.00
2017,07,07,06,43,14.10
2017,07,07,06,44,14.10
2017,07,07,06,45,14.10
2017,07,07,06,46,14.20
2017,07,07,06,47,14.20
2017,07,07,06,48,14.20
2017,07,07,06,49,14.30
2017,07,07,06,50,14.30
2017,07,07,06,51,14.30
2017,07,07,06,52,14.40
2017,07,07,06,53,14.40
2017,07,07,06,54,14.40
2017,07,07,06,55,14.40
2017,07,07,06,56,14.50
2017,07,07,06,57,14.50
2017,07,07,06,58,14.60
2017,07,07,06,59,14.70
2017,07,07,07,00,14.80
2017,07,07,07,01,14.90
2017,07,07,07,02,15.00
2017,07,07,07,03,15.00
2017,07,07,07,04,15.00
2017,07,07,07,05,15.00
2017,07,07,07,06,15.00
2017,07,07,07,07,15.10
2017,07,07,07,08,15.20
2017,07,07,07,09,15.30
2017,07,07,07,10,15.30
2017,07,07,07,11,15.40
2017,07,07,07,12,15.40
2017,07,07,07,13,15.50
2017,07,07,07,14,15.50
2017,07,07,07,15,15.60
2017,07,07,07,16,15.60
2017,07,07,07,17,15.70
2017,07,07,07,18,15.70
2017,07,07,07,19,15.80
2017,07,07,07,20,15.90
2017,07,07,07,21,15.90
2017,07,07,07,22,16.00
2017,07,07,07,23,16.10
2017,07,07,07,24,16.10
2017,07,07,07,25,16.20
2017,07,07,07,26,16.30
2017,07,07,07,27,16.30
2017,07,07,07,28,16.30
2017,07,07,07,29,16.40
2017,07,07,07,30,16.50
2017,07,07,07,31,16.50
2017,07,07,07,32,16.60
2017,07,07,07,33,16.70
2017,07,07,07,34,16.70
2017,07,07,07,35,16.80
2017,07,07,07,36,16.80
2017,07,07,07,37,16.80
2017,07,07,07,38,16.80
2017,07,07,07,39,16.90
2017,07,07,07,40,16.90
2017,07,07,07,41,16.90
2017,07,07,07,42,16.90
2017,07,07,07,43,16.90
2017,07,07,07,44,16.90
2017,07,07,07,45,16.90
2017,07,07,07,46,16.90
2017,07,07,07,47,17.00
2017,07,07,07,48,17.00
2017,07,07,07,49,17.00
2017,07,07,07,50,17.00
2017,07,07,07,51,17.00
2017,07,07,07,52,17.10
2017,07,07,07,53,17.10
2017,07,07,07,54,17.10
2017,07,07,07,55,17.10
2017,07,07,07,56,17.20
2017,07,07,07,57,17.30
2017,07,07,07,58,17.40
2017,07,07,07,59,17.50
2017,07,07,08,00,17.60
2017,07,07,08,01,17.70
2017,07,07,08,02,17.80
2017,07,07,08,03,17.80
2017,07,07,08,04,17.90
2017,07,07,08,05,18.00
2017,07,07,08,06,18.10
2017,07,07,08,07,18.30
2017,07,07,08,08,18.30
2017,07,07,08,09,18.40
2017,07,07,08,10,18.50
2017,07,07,08,11,18.60
2017,07,07,08,12,18.70
2017,07,07,08,13,18.70
2017,07,07,08,14,18.80
2017,07,07,08,15,18.80
2017,07,07,08,16,18.80
2017,07,07,08,17,18.80
2017,07,07,08,18,18.80
2017,07,07,08,19,18.80
2017,07,07,08,20,18.80
2017,07,07,08,21,18.80
2017,07,07,08,22,18.80
2017,07,07,08,23,18.90
2017,07,07,08,24,18.90
2017,07,07,08,25,18.90
2017,07,07,08,26,19.00
2017,07,07,08,27,19.10
2017,07,07,08,28,19.20
2017,07,07,08,29,19.20
2017,07,07,08,30,19.30
2017,07,07,08,31,19.30
2017,07,07,08,32,19.40
2017,07,07,08,33,19.50
2017,07,07,08,34,19.60
2017,07,07,08,35,19.60
2017,07,07,08,36,19.60
2017,07,07,08,37,19.60
2017,07,07,08,38,19.70
2017,07,07,08,39,19.70
2017,07,07,08,40,19.70
2017,07,07,08,41,19.80
2017,07,07,08,42,19.90
2017,07,07,08,43,20.00
2017,07,07,08,44,20.00
2017,07,07,08,45,20.10
2017,07,07,08,46,20.20
2017,07,07,08,47,20.20
2017,07,07,08,48,20.20
2017,07,07,08,49,20.20
2017,07,07,08,50,20.30
2017,07,07,08,51,20.30
2017,07,07,08,52,20.30
2017,07,07,08,53,20.40
2017,07,07,08,54,20.30
2017,07,07,08,55,20.30
2017,07,07,08,56,20.30
2017,07,07,08,57,20.20
2017,07,07,08,58,20.30
2017,07,07,08,59,20.30
2017,07,07,09,00,20.30
2017,07,07,09,01,20.30
2017,07,07,09,02,20.40
2017,07,07,09,03,20.40
2017,07,07,09,04,20.50
2017,07,07,09,05,20.50
2017,07,07,09,06,20.60
2017,07,07,09,07,20.70
2017,07,07,09,08,20.80
2017,07,07,09,09,20.80
2017,07,07,09,10,20.90
2017,07,07,09,11,20.90
2017,07,07,09,12,21.00
2017,07,07,09,13,21.00
2017,07,07,09,14,21.10
2017,07,07,09,15,21.10
2017,07,07,09,16,21.10
2017,07,07,09,17,21.10
2017,07,07,09,18,21.10
2017,07,07,09,19,21.10
2017,07,07,09,20,21.10
2017,07,07,09,21,21.10
2017,07,07,09,22,21.10
2017,07,07,09,23,21.10
2017,07,07,09,24,21.10
2017,07,07,09,25,21.10
2017,07,07,09,26,21.10
2017,07,07,09,27,21.20
2017,07,07,09,28,21.20
2017,07,07,09,29,21.20
2017,07,07,09,30,21.30
2017,07,07,09,31,21.40
2017,07,07,09,32,21.50
2017,07,07,09,33,21.60
2017,07,07,09,34,21.60
2017,07,07,09,35,21.40
2017,07,07,09,36,21.30
2017,07,07,09,37,21.20
2017,07,07,09,38,21.20
2017,07,07,09,39,21.20
2017,07,07,09,40,21.10
2017,07,07,09,41,21.10
2017,07,07,09,42,21.20
2017,07,07,09,43,21.20
2017,07,07,09,44,21.20
2017,07,07,09,45,21.30
2017,07,07,09,46,21.30
2017,07,07,09,47,21.40
2017,07,07,09,48,21.50
2017,07,07,09,49,21.60
2017,07,07,09,50,21.70
2017,07,07,09,51,21.80
2017,07,07,09,52,21.80
2017,07,07,09,53,21.80
2017,07,07,09,54,21.90
2017,07,07,09,55,21.90
2017,07,07,09,56,22.00
2017,07,07,09,57,22.00
2017,07,07,09,58,21.90
2017,07,07,09,59,21.90
2017,07,07,10,00,21.90
2017,07,07,10,01,21.90
2017,07,07,10,02,21.80
2017,07,07,10,03,21.80
2017,07,07,10,04,21.80
2017,07,07,10,05,21.80
2017,07,07,10,06,21.80
2017,07,07,10,07,21.80
2017,07,07,10,08,21.90
2017,07,07,10,09,22.10
2017,07,07,10,10,22.10
2017,07,07,10,11,22.20
2017,07,07,10,12,22.20
2017,07,07,10,13,22.20
2017,07,07,10,14,22.20
2017,07,07,10,15,22.30
2017,07,07,10,16,22.40
2017,07,07,10,17,22.40
2017,07,07,10,18,22.50
2017,07,07,10,19,22.50
2017,07,07,10,20,22.60
2017,07,07,10,21,22.70
2017,07,07,10,22,22.80
2017,07,07,10,23,22.80
2017,07,07,10,24,22.90
2017,07,07,10,25,23.00
2017,07,07,10,26,23.00
2017,07,07,10,27,23.00
2017,07,07,10,28,23.10
2017,07,07,10,29,23.10
2017,07,07,10,30,23.10
2017,07,07,10,31,23.10
2017,07,07,10,32,23.10
2017,07,07,10,33,23.10
2017,07,07,10,34,23.00
2017,07,07,10,35,22.90
2017,07,07,10,36,22.90
2017,07,07,10,37,22.80
2017,07,07,10,38,22.80
2017,07,07,10,39,22.70
2017,07,07,10,40,22.70
2017,07,07,10,41,22.70
2017,07,07,10,42,22.70
2017,07,07,10,43,22.70
2017,07,07,10,44,22.70
2017,07,07,10,45,22.70
2017,07,07,10,46,22.70
2017,07,07,10,47,22.80
2017,07,07,10,48,22.80
2017,07,07,10,49,22.70
2017,07,07,10,50,22.70
2017,07,07,10,51,22.70
2017,07,07,10,52,22.70
2017,07,07,10,53,22.60
2017,07,07,10,54,22.60
2017,07,07,10,55,22.50
2017,07,07,10,56,22.40
2017,07,07,10,57,22.40
2017,07,07,10,58,22.40
2017,07,07,10,59,22.30
2017,07,07,11,00,22.30
2017,07,07,11,01,22.30
2017,07,07,11,02,22.30
2017,07,07,11,03,22.40
2017,07,07,11,04,22.40
2017,07,07,11,05,22.50
2017,07,07,11,06,22.60
2017,07,07,11,07,22.60
2017,07,07,11,08,22.70
2017,07,07,11,09,22.70
2017,07,07,11,10,22.70
2017,07,07,11,11,22.70
2017,07,07,11,12,22.70
2017,07,07,11,13,22.70
2017,07,07,11,14,22.70
2017,07,07,11,15,22.70
2017,07,07,11,16,22.70
2017,07,07,11,17,22.70
2017,07,07,11,18,22.70
2017,07,07,11,19,22.80
2017,07,07,11,20,22.90
2017,07,07,11,21,22.90
2017,07,07,11,22,23.00
2017,07,07,11,23,23.10
2017,07,07,11,24,23.10
2017,07,07,11,25,23.20
2017,07,07,11,26,23.20
2017,07,07,11,27,23.30
2017,07,07,11,28,23.30
2017,07,07,11,29,23.40
2017,07,07,11,30,23.40
2017,07,07,11,31,23.40
2017,07,07,11,32,23.40
2017,07,07,11,33,23.40
2017,07,07,11,34,23.40
2017,07,07,11,35,23.30
2017,07,07,11,36,23.30
2017,07,07,11,37,23.20
2017,07,07,11,38,23.20
2017,07,07,11,39,23.10
2017,07,07,11,40,23.20
2017,07,07,11,41,23.20
2017,07,07,11,42,23.20
2017,07,07,11,43,23.20
2017,07,07,11,44,23.20
2017,07,07,11,45,23.10
2017,07,07,11,46,23.00
2017,07,07,11,47,23.10
2017,07,07,11,48,22.90
2017,07,07,11,49,22.90
2017,07,07,11,50,22.80
2017,07,07,11,51,22.80
2017,07,07,11,52,22.80
2017,07,07,11,53,22.80
2017,07,07,11,54,22.80
2017,07,07,11,55,22.90
2017,07,07,11,56,22.90
2017,07,07,11,57,22.90
2017,07,07,11,58,22.90
2017,07,07,11,59,22.90
2017,07,07,12,00,22.90
2017,07,07,12,01,22.90
2017,07,07,12,02,23.00
2017,07,07,12,03,22.90
2017,07,07,12,04,23.00
2017,07,07,12,05,23.10
2017,07,07,12,06,23.10
2017,07,07,12,07,23.20
2017,07,07,12,08,23.20
2017,07,07,12,09,23.20
2017,07,07,12,10,23.30
2017,07,07,12,11,23.20
2017,07,07,12,12,23.20
2017,07,07,12,13,23.10
2017,07,07,12,14,23.00
2017,07,07,12,15,23.10
2017,07,07,12,16,23.10
2017,07,07,12,17,23.10
2017,07,07,12,18,23.10
2017,07,07,12,19,23.20
2017,07,07,12,20,23.30
2017,07,07,12,21,23.30
2017,07,07,12,22,23.40
2017,07,07,12,23,23.50
2017,07,07,12,24,23.50
2017,07,07,12,25,23.60
2017,07,07,12,26,23.60
2017,07,07,12,27,23.70
2017,07,07,12,28,23.70
2017,07,07,12,29,23.70
2017,07,07,12,30,23.70
2017,07,07,12,31,23.70
2017,07,07,12,32,23.60
2017,07,07,12,33,23.70
2017,07,07,12,34,23.70
2017,07,07,12,35,23.80
2017,07,07,12,36,23.80
2017,07,07,12,37,23.90
2017,07,07,12,38,24.00
2017,07,07,12,39,24.00
2017,07,07,12,40,24.10
2017,07,07,12,41,24.20
2017,07,07,12,42,24.20
2017,07,07,12,43,24.30
2017,07,07,12,44,24.30
2017,07,07,12,45,24.30
2017,07,07,12,46,24.30
2017,07,07,12,47,24.30
2017,07,07,12,48,24.20
2017,07,07,12,49,24.20
2017,07,07,12,50,24.20
2017,07,07,12,51,24.20
2017,07,07,12,52,24.10
2017,07,07,12,53,24.10
2017,07,07,12,54,24.20
2017,07,07,12,55,24.30
2017,07,07,12,56,24.30
2017,07,07,12,57,24.40
2017,07,07,12,58,24.40
2017,07,07,12,59,24.40
2017,07,07,13,00,24.40
2017,07,07,13,01,24.40
2017,07,07,13,02,24.40
2017,07,07,13,03,24.40
2017,07,07,13,04,24.40
2017,07,07,13,05,24.50
2017,07,07,13,06,24.50
2017,07,07,13,07,24.60
2017,07,07,13,08,24.70
2017,07,07,13,09,24.70
2017,07,07,13,10,24.70
2017,07,07,13,11,24.80
2017,07,07,13,12,24.80
2017,07,07,13,13,24.70
2017,07,07,13,14,24.70
2017,07,07,13,15,24.80
2017,07,07,13,16,24.80
2017,07,07,13,17,24.80
2017,07,07,13,18,24.90
2017,07,07,13,19,24.90
2017,07,07,13,20,24.90
2017,07,07,13,21,24.90
2017,07,07,13,22,25.00
2017,07,07,13,23,25.10
2017,07,07,13,24,25.10
2017,07,07,13,25,25.20
2017,07,07,13,26,25.20
2017,07,07,13,27,25.20
2017,07,07,13,28,25.20
2017,07,07,13,29,25.10
2017,07,07,13,30,25.10
2017,07,07,13,31,25.10
2017,07,07,13,32,25.10
2017,07,07,13,33,25.20
2017,07,07,13,34,25.10
2017,07,07,13,35,25.10
2017,07,07,13,36,25.20
2017,07,07,13,37,25.20
2017,07,07,13,38,25.20
2017,07,07,13,39,25.10
2017,07,07,13,40,25.00
2017,07,07,13,41,24.90
2017,07,07,13,42,24.90
2017,07,07,13,43,24.80
2017,07,07,13,44,24.80
2017,07,07,13,45,24.80
2017,07,07,13,46,24.80
2017,07,07,13,47,24.90
2017,07,07,13,48,24.90
2017,07,07,13,49,24.90
2017,07,07,13,50,24.90
2017,07,07,13,51,25.00
2017,07,07,13,52,25.00
2017,07,07,13,53,24.90
2017,07,07,13,54,24.90
2017,07,07,13,55,24.90
2017,07,07,13,56,24.90
2017,07,07,13,57,24.90
2017,07,07,13,58,24.90
2017,07,07,13,59,25.00
2017,07,07,14,00,25.00
2017,07,07,14,01,25.00
2017,07,07,14,02,25.10
2017,07,07,14,03,25.10
2017,07,07,14,04,25.20
2017,07,07,14,05,25.30
2017,07,07,14,06,25.30
2017,07,07,14,07,25.40
2017,07,07,14,08,25.40
2017,07,07,14,09,25.50
2017,07,07,14,10,25.60
2017,07,07,14,11,25.70
2017,07,07,14,12,25.70
2017,07,07,14,13,25.70
2017,07,07,14,14,25.70
2017,07,07,14,15,25.70
2017,07,07,14,16,25.60
2017,07,07,14,17,25.60
2017,07,07,14,18,25.50
2017,07,07,14,19,25.50
2017,07,07,14,20,25.50
2017,07,07,14,21,25.50
2017,07,07,14,22,25.40
2017,07,07,14,23,25.50
2017,07,07,14,24,25.50
2017,07,07,14,25,25.40
2017,07,07,14,26,25.40
2017,07,07,14,27,25.40
2017,07,07,14,28,25.40
2017,07,07,14,29,25.40
2017,07,07,14,30,25.40
2017,07,07,14,31,25.40
2017,07,07,14,32,25.40
2017,07,07,14,33,25.40
2017,07,07,14,34,25.40
2017,07,07,14,35,25.40
2017,07,07,14,36,25.40
2017,07,07,14,37,25.40
2017,07,07,14,38,25.40
2017,07,07,14,39,25.40
2017,07,07,14,40,25.40
2017,07,07,14,41,25.30
2017,07,07,14,42,25.30
2017,07,07,14,43,25.20
2017,07,07,14,44,25.20
2017,07,07,14,45,25.20
2017,07,07,14,46,25.20
2017,07,07,14,47,25.20
2017,07,07,14,48,25.20
2017,07,07,14,49,25.20
2017,07,07,14,50,25.30
2017,07,07,14,51,25.40
2017,07,07,14,52,25.40
2017,07,07,14,53,25.40
2017,07,07,14,54,25.40
2017,07,07,14,55,25.40
2017,07,07,14,56,25.40
2017,07,07,14,57,25.50
2017,07,07,14,58,25.60
2017,07,07,14,59,25.70
2017,07,07,15,00,25.80
2017,07,07,15,01,25.80
2017,07,07,15,02,25.90
2017,07,07,15,03,25.90
2017,07,07,15,04,25.90
2017,07,07,15,05,25.90
2017,07,07,15,06,25.80
2017,07,07,15,07,25.80
2017,07,07,15,08,25.80
2017,07,07,15,09,25.90
2017,07,07,15,10,25.90
2017,07,07,15,11,25.90
2017,07,07,15,12,26.00
2017,07,07,15,13,26.00
2017,07,07,15,14,26.00
2017,07,07,15,15,26.00
2017,07,07,15,16,25.90
2017,07,07,15,17,25.90
2017,07,07,15,18,26.00
2017,07,07,15,19,26.10
2017,07,07,15,20,26.10
2017,07,07,15,21,26.10
2017,07,07,15,22,26.10
2017,07,07,15,23,26.20
2017,07,07,15,24,26.20
2017,07,07,15,25,26.20
2017,07,07,15,26,26.20
2017,07,07,15,27,26.20
2017,07,07,15,28,26.30
2017,07,07,15,29,26.30
2017,07,07,15,30,26.30
2017,07,07,15,31,26.30
2017,07,07,15,32,26.20
2017,07,07,15,33,26.20
2017,07,07,15,34,26.20
2017,07,07,15,35,26.20
2017,07,07,15,36,26.20
2017,07,07,15,37,26.20
2017,07,07,15,38,26.20
2017,07,07,15,39,26.20
2017,07,07,15,40,26.10
2017,07,07,15,41,26.10
2017,07,07,15,42,26.00
2017,07,07,15,43,26.00
2017,07,07,15,44,25.90
2017,07,07,15,45,25.90
2017,07,07,15,46,25.90
2017,07,07,15,47,25.80
2017,07,07,15,48,25.80
2017,07,07,15,49,25.80
2017,07,07,15,50,25.80
2017,07,07,15,51,25.90
2017,07,07,15,52,25.90
2017,07,07,15,53,26.00
2017,07,07,15,54,26.10
2017,07,07,15,55,26.20
2017,07,07,15,56,26.40
2017,07,07,15,57,26.40
2017,07,07,15,58,26.40
2017,07,07,15,59,26.30
2017,07,07,16,00,26.30
2017,07,07,16,01,26.10
2017,07,07,16,02,26.00
2017,07,07,16,03,25.90
2017,07,07,16,04,25.70
2017,07,07,16,05,25.60
2017,07,07,16,06,25.50
2017,07,07,16,07,25.50
2017,07,07,16,08,25.50
2017,07,07,16,09,25.50
2017,07,07,16,10,25.30
2017,07,07,16,11,25.20
2017,07,07,16,12,25.10
2017,07,07,16,13,25.00
2017,07,07,16,14,24.90
2017,07,07,16,15,24.90
2017,07,07,16,16,24.80
2017,07,07,16,17,24.80
2017,07,07,16,18,24.70
2017,07,07,16,19,24.70
2017,07,07,16,20,24.70
2017,07,07,16,21,24.70
2017,07,07,16,22,24.60
2017,07,07,16,23,24.70
2017,07,07,16,24,24.70
2017,07,07,16,25,24.70
2017,07,07,16,26,24.80
2017,07,07,16,27,24.80
2017,07,07,16,28,24.80
2017,07,07,16,29,24.80
2017,07,07,16,30,24.80
2017,07,07,16,31,24.70
2017,07,07,16,32,24.70
2017,07,07,16,33,24.70
2017,07,07,16,34,24.70
2017,07,07,16,35,24.80
2017,07,07,16,36,24.80
2017,07,07,16,37,24.90
2017,07,07,16,38,24.90
2017,07,07,16,39,24.90
2017,07,07,16,40,24.80
2017,07,07,16,41,24.80
2017,07,07,16,42,24.80
2017,07,07,16,43,24.80
2017,07,07,16,44,24.80
2017,07,07,16,45,24.90
2017,07,07,16,46,24.90
2017,07,07,16,47,24.90
2017,07,07,16,48,24.80
2017,07,07,16,49,24.80
2017,07,07,16,50,24.80
2017,07,07,16,51,24.80
2017,07,07,16,52,24.80
2017,07,07,16,53,24.80
2017,07,07,16,54,24.80
2017,07,07,16,55,24.80
2017,07,07,16,56,24.80
2017,07,07,16,57,24.80
2017,07,07,16,58,24.80
2017,07,07,16,59,24.80
2017,07,07,17,00,24.80
2017,07,07,17,01,24.80
2017,07,07,17,02,24.80
2017,07,07,17,03,24.80
2017,07,07,17,04,24.70
2017,07,07,17,05,24.60
2017,07,07,17,06,24.60
2017,07,07,17,07,24.60
2017,07,07,17,08,24.60
2017,07,07,17,09,24.70
2017,07,07,17,10,24.60
2017,07,07,17,11,24.60
2017,07,07,17,12,24.70
2017,07,07,17,13,24.70
2017,07,07,17,14,24.70
2017,07,07,17,15,24.80
2017,07,07,17,16,24.80
2017,07,07,17,17,24.80
2017,07,07,17,18,24.90
2017,07,07,17,19,24.90